Flag for U.S.A. Weather past 2 weeks in Salt Lake City, Utah, U.S.A.

Now
61 °F

Scattered clouds.


Feels Like: 61 °F
Forecast: 53 / 71 °F
Wind: No wind

Location: Salt Lake City International Airport


UV Index: 5 (Moderate)

Visibility: 10 mi


Pressure: 29.88 "Hg

Humidity: 41%

Dew point: 37 °F

Location of Salt Lake CityLocation

Historic Weather in Salt Lake City

°F

Salt Lake City temperature yesterday

Maximum temperature yesterday: 65 °F (at 3:53 AM)
Minimum temperature yesterday: 50 °F (at 11:53 PM)
Average temperature yesterday: 61 °F

Past Weeks' High & Low Weather Summary

 TemperatureHumidityPressure
High79 °F (Apr 9, 12:53 PM)100% (Apr 19, 4:53 AM)30.32 "Hg (Apr 19, 4:53 AM)
Low30 °F (Apr 14, 5:53 AM)11% (Apr 15, 4:53 PM)29.56 "Hg (Apr 12, 11:53 PM)
Average55 °F42%29.94 "Hg
* Reported Apr 4 7:53 PM — Apr 19 7:53 PM, Salt Lake City, Weather by CustomWeather, © 2014

Note: Actual official high and low records may vary slightly from our data, if they occured in-between our weather recording intervals... More about our weather records

Advertising

Historic Weather Conditions — Data for Previous 24 hours

 ConditionsComfort  
Time TempWeatherWind HumidityBarometerVisibility
7:53 PM
Apr 19
67 °FBroken clouds.3 mph32%29.87 "Hg10 mi
6:53 PM70 °FBroken clouds.No wind29%29.87 "Hg10 mi
5:53 PM69 °FPartly sunny.7 mph31%29.88 "Hg10 mi
4:53 PM70 °FBroken clouds.5 mph30%29.88 "Hg10 mi
3:53 PM71 °FBroken clouds.10 mph31%29.87 "Hg10 mi
2:53 PM71 °FBroken clouds.12 mph31%29.89 "Hg10 mi
1:53 PM70 °FBroken clouds.5 mph31%29.90 "Hg10 mi
12:53 PM66 °FBroken clouds.No wind37%29.93 "Hg10 mi
11:53 AM64 °FPartly sunny.No wind41%29.94 "Hg10 mi
10:53 AM59 °FPartly sunny.3 mph51%29.94 "Hg10 mi
9:53 AM58 °FBroken clouds.No wind56%29.93 "Hg10 mi
8:53 AM52 °FScattered clouds.No wind69%29.93 "Hg10 mi
7:53 AM49 °FPartly sunny.3 mph90%29.93 "Hg10 mi
6:53 AM46 °FPassing clouds.6 mph96%29.91 "Hg10 mi
5:53 AM46 °FPassing clouds.No wind89%29.90 "Hg10 mi
4:53 AM46 °FPassing clouds.5 mph100%29.90 "Hg10 mi
3:53 AM50 °FPassing clouds.3 mph83%29.88 "Hg10 mi
2:53 AM48 °FPassing clouds.No wind93%29.89 "Hg10 mi
1:53 AM48 °FPassing clouds.No wind96%29.89 "Hg10 mi
12:53 AM48 °FPassing clouds.3 mph96%29.90 "Hg10 mi
11:53 PM
Apr 18
50 °FPassing clouds.5 mph89%29.88 "Hg10 mi
10:53 PM54 °FPassing clouds.3 mph77%29.87 "Hg10 mi
9:53 PM54 °FPartly cloudy.6 mph83%29.86 "Hg10 mi
Weather by CustomWeather, © 2014

See weather overview